Regional Weather Roundup
Issued by NWS

Home | Current Version | Previous Version | Graphics & Text | Print | Product List | Glossary On
Versions: 1 2 3 4 5 6 7 8 9 10 11 12 13 14 15 16 17 18 19 20 21 22 23 24 25 26 27 28 29 30 31 32 33 34 35 36 37 38 39 40 41 42 43 44 45 46 47 48 49 50
000
ASUS43 KFSD 290110
RWRSD

WEATHER ROUNDUP FOR SOUTH DAKOTA
NATIONAL WEATHER SERVICE SIOUX FALLS SD
700 PM CST SUN DEC 28 2014

NOTE: "FAIR" INDICATES FEW OR NO CLOUDS BELOW 12,000 FEET WITH NO
SIGNIFICANT WEATHER AND/OR OBSTRUCTIONS TO VISIBILITY.


SDZ001>005-009-010-012>017-290200-
NORTHWEST AND NORTH CENTRAL SOUTH DAKOTA

CITY           SKY/WX    TMP DP  RH WIND       PRES   REMARKS
BUFFALO          N/A     17  14  88 NE12      30.02R WCI   4
FAITH            N/A     17  14  88 E14       30.12R WCI   3
MOBRIDGE       CLOUDY    10   5  80 E9        30.22R WCI  -3
$$

SDZ012>016-024>037-041>051-057-063-072>074-290200-
SOUTHWEST AND SOUTH CENTRAL SOUTH DAKOTA

CITY           SKY/WX    TMP DP  RH WIND       PRES   REMARKS
RAPID CTY ARPT LGT SNOW  18  14  84 NE8       30.05R FOG     WCI   8
PIERRE         LGT SNOW  18  15  88 E14       30.18R FOG     WCI   4
CUSTER         LGT SNOW  16  12  84 NE8       29.88R FOG     WCI   5
ELLSWORTH AFB  FLURRIES  18  14  86 E8        30.04  WCI   7
PHILIP         LGT SNOW  19  15  84 E12       30.12R FOG     WCI   7
PINE RIDGE     LGT SNOW  23  19  85 E10       29.99R FOG     WCI  12
SPEARFISH      FLURRIES  18  16  93 E12       30.00R WCI   5
WINNER         LGT SNOW  19  15  84 E12       30.13R WCI   7
$$

SDZ004>011-016>023-039-040-290200-
NORTHEAST SOUTH DAKOTA

CITY           SKY/WX    TMP DP  RH WIND       PRES   REMARKS
ABERDEEN       MOCLDY     6  -2  69 NE13      30.30R WCI -10
WATERTOWN      CLOUDY     6   1  80 NE10      30.22R WCI  -9
SISSETON         N/A      5   0  79 N16       30.31S WCI -14
$$

SDZ017-020-022-023-036>040-048>070-290200-
SOUTHEAST SOUTH DAKOTA

CITY           SKY/WX    TMP DP  RH WIND       PRES   REMARKS
SIOUX FALLS    CLOUDY    20  16  84 E9        30.21R WCI   9
HURON          CLOUDY    16  13  88 NE6       30.25R WCI   7
CHAMBERLAIN    LGT SNOW  18  16  92 NE7       30.18R WCI   8
MITCHELL       CLOUDY    22  18  85 E8        30.22R WCI  12
YANKTON        CLOUDY    19  16  86 NE5       30.21R WCI  13
$$

ABBREVIATIONS USED IN REMARKS
   TC - TEMPERATURE IN CELSIUS
  WCI - WIND CHILL INDEX
   HX - HEAT INDEX
  VSB - VISIBILITY




USA.gov is the U.S. government's official web portal to all federal, state and local government web resources and services.